GW1001 Weather Reports


time (UTC)temp
F
wind
direction
speed
knots
gust
knots
rain 1hr
in
rain 24hr
in
rain mn
in
humidity
%
barometer
mb
20260505172005 58 315 3.5 8.7 0.00 0.39 0.07 80 1015.5
20260505171006 58 301 4.3 7.8 0.00 0.39 0.07 81 1015.5
20260505170504 58 309 3.5 7.8 0.00 0.39 0.07 82 1015.5
20260505170007 57 280 3.5 7.8 0.00 0.39 0.07 84 1015.5
20260505165504 57 294 2.6 7.0 0.00 0.39 0.07 84 1015.5
20260505164007 57 215 2.6 7.0 0.00 0.39 0.07 84 1015.6
20260505163505 57 298 2.6 6.1 0.00 0.39 0.07 85 1015.5
20260505163009 57 298 1.7 4.3 0.00 0.39 0.07 85 1015.6
20260505162505 56 272 1.7 4.3 0.00 0.39 0.07 85 1015.6
20260505162006 56 281 1.7 8.7 0.00 0.39 0.07 85 1015.5
20260505161007 56 277 1.7 6.1 0.00 0.39 0.07 86 1015.4
20260505160505 56 296 2.6 6.1 0.00 0.39 0.07 85 1015.2
20260505152006 55 285 2.6 6.1 0.00 0.39 0.07 88 1015.2
20260505151505 55 296 2.6 8.7 0.00 0.39 0.07 88 1015.0
20260505151006 55 283 3.5 8.7 0.00 0.39 0.07 88 1014.9
20260505150506 54 270 2.6 8.7 0.00 0.39 0.07 88 1014.8
20260505140504 54 245 2.6 5.2 0.00 0.39 0.07 90 1014.4
20260505125005 54 282 1.7 4.3 0.00 0.39 0.07 90 1014.1
20260505124505 54 301 0.9 2.6 0.00 0.39 0.07 90 1014.1
20260505124005 54 287 0.0 3.5 0.00 0.39 0.07 90 1014.1
20260505123504 54 292 1.7 3.5 0.00 0.39 0.07 90 1014.1
20260505123005 54 299 1.7 2.6 0.00 0.39 0.07 90 1014.0
20260505122502 54 257 1.7 6.1 0.00 0.39 0.07 90 1014.1
20260505122005 54 261 2.6 6.1 0.00 0.39 0.07 90 1014.0
20260505121505 54 273 1.7 4.3 0.00 0.39 0.07 90 1014.1
20260505121006 54 271 0.9 6.1 0.00 0.39 0.07 90 1014.2
20260505120505 54 244 2.6 6.1 0.00 0.39 0.07 90 1014.1
20260505120006 54 262 0.9 3.5 0.00 0.39 0.07 90 1014.1
20260505115504 54 290 1.7 5.2 0.00 0.39 0.07 90 1014.1
20260505115006 54 263 2.6 5.2 0.00 0.39 0.07 89 1014.0
20260505114005 53 265 2.6 5.2 0.00 0.39 0.07 89 1014.0
20260505113006 53 263 0.9 7.0 0.00 0.39 0.07 89 1014.0
20260505112505 53 277 1.7 7.0 0.00 0.39 0.07 89 1014.1
20260505112005 53 291 0.9 3.5 0.00 0.39 0.07 89 1014.1
20260505111505 53 290 0.9 7.0 0.00 0.39 0.07 89 1014.2
20260505111005 53 251 1.7 7.8 0.00 0.39 0.07 89 1014.0
20260505102005 53 269 1.7 3.5 0.00 0.39 0.07 90 1014.4
20260505101505 53 234 0.0 1.7 0.00 0.39 0.07 90 1014.4
20260505101005 53 234 0.0 5.2 0.00 0.39 0.07 90 1014.3
20260505095504 53 252 0.9 4.3 0.00 0.39 0.07 90 1014.3
20260505094505 53 275 1.7 3.5 0.00 0.39 0.07 90 1014.4
20260505094005 53 263 1.7 7.8 0.00 0.39 0.07 90 1014.3
20260505093505 53 227 3.5 7.8 0.01 0.39 0.07 90 1014.2
20260505093005 53 244 3.5 7.0 0.01 0.39 0.07 90 1014.2
20260505092504 53 223 3.5 7.8 0.01 0.39 0.07 90 1014.2
20260505092005 53 230 4.3 7.8 0.02 0.39 0.07 90 1014.3
20260505091006 53 269 2.6 7.0 0.02 0.39 0.07 90 1014.4
20260505090500 53 322 3.5 7.0 0.03 0.39 0.07 90 1014.4
20260505090005 53 183 3.5 10.4 0.03 0.39 0.07 90 1014.3
20260505085459 53 230 5.2 10.4 0.04 0.39 0.07 90 1014.4
20260505085006 53 280 2.6 8.7 0.04 0.39 0.07 90 1014.4
20260505084459 53 266 3.5 8.7 0.04 0.39 0.07 90 1014.6
20260505084004 53 312 2.6 7.0 0.04 0.39 0.07 90 1014.7
20260505083459 53 239 3.5 7.8 0.04 0.38 0.06 90 1014.7
20260505083006 53 290 2.6 7.8 0.04 0.38 0.06 90 1014.9
20260505082500 53 255 2.6 8.7 0.04 0.38 0.06 90 1015.0
20260505081501 53 275 4.3 7.0 0.04 0.37 0.05 90 1014.7
20260505081005 53 319 3.5 7.0 0.03 0.36 0.04 90 1014.7
20260505080500 53 300 2.6 9.6 0.04 0.36 0.04 90 1014.8
20260505075505 53 262 5.2 8.7 0.04 0.35 0.03 90 1014.9
20260505075007 53 268 3.5 8.7 0.04 0.35 0.03 90 1014.7
20260505074505 53 252 3.5 7.0 0.05 0.35 0.03 90 1014.8
20260505074007 53 237 3.5 7.0 0.05 0.35 0.03 90 1014.8
20260505073505 53 272 3.5 7.8 0.04 0.34 0.02 90 1014.8
20260505073007 53 267 4.3 7.8 0.04 0.34 0.02 91 1014.8
20260505072505 53 246 2.6 7.8 0.04 0.34 0.02 91 1014.9
20260505072006 53 300 3.5 7.8 0.04 0.33 0.01 91 1014.8
20260505071506 53 288 3.5 6.1 0.04 0.33 0.01 91 1014.9
20260505071007 53 288 2.6 5.2 0.05 0.33 0.01 91 1015.0
20260505070505 53 282 1.7 7.0 0.04 0.32 0.00 91 1015.2
20260505070006 53 278 2.6 7.0 0.05 0.32 0.32 91 1015.1
20260505065505 53 272 3.5 7.8 0.04 0.31 0.31 91 1014.9
20260505065005 53 240 3.5 7.8 0.05 0.31 0.31 91 1015.0
20260505064506 53 272 3.5 7.8 0.04 0.30 0.30 91 1015.2
20260505064006 53 281 2.6 6.1 0.05 0.30 0.30 90 1015.2
20260505063505 53 293 2.6 7.8 0.05 0.30 0.30 90 1015.2
20260505062005 53 306 3.5 7.8 0.04 0.29 0.29 90 1014.9
20260505061505 53 287 3.5 7.0 0.04 0.29 0.29 90 1014.7
20260505060505 53 280 2.6 7.0 0.04 0.28 0.28 90 1015.1
20260505060009 53 287 2.6 9.6 0.03 0.27 0.27 90 1015.1
20260505055505 53 290 4.3 9.6 0.03 0.27 0.27 90 1014.9
20260505055005 53 279 3.5 8.7 0.02 0.26 0.26 90 1015.0
20260505054506 53 260 5.2 8.7 0.03 0.26 0.26 90 1015.0
20260505054006 53 282 4.3 7.8 0.03 0.25 0.25 90 1015.0
20260505053505 53 291 2.6 7.0 0.03 0.25 0.25 90 1015.1
20260505052504 53 286 2.6 7.0 0.06 0.25 0.25 90 1015.2
20260505052006 53 297 2.6 7.0 0.07 0.25 0.25 90 1015.5
20260505051505 53 295 0.9 5.2 0.08 0.25 0.25 90 1015.3
20260505051005 53 296 0.9 4.3 0.09 0.25 0.25 90 1015.4
20260505050504 53 317 1.7 4.3 0.09 0.24 0.24 90 1015.3
20260505041505 53 269 0.0 1.7 0.06 0.17 0.17 90 1015.7
20260505041007 53 294 0.9 4.3 0.05 0.16 0.16 90 1016.0
20260505040505 53 248 0.9 4.3 0.03 0.14 0.14 90 1016.1
20260505040009 53 280 1.7 4.3 0.04 0.14 0.14 89 1016.0
20260505035504 53 279 1.7 6.1 0.04 0.13 0.13 89 1016.0
20260505035005 53 309 2.6 6.1 0.04 0.13 0.13 89 1015.9
20260505034505 53 291 1.7 4.3 0.03 0.12 0.12 89 1015.7
20260505034005 53 304 1.7 3.5 0.03 0.12 0.12 89 1015.4
20260505033006 53 306 1.7 7.8 0.03 0.12 0.12 89 1014.7
20260505032505 53 290 1.7 6.1 0.04 0.12 0.12 89 1014.5
20260505032004 53 318 1.7 7.0 0.03 0.11 0.11 89 1014.4
20260505031505 53 314 0.9 6.1 0.04 0.11 0.11 89 1014.5
20260505031005 53 309 1.7 6.1 0.04 0.11 0.11 89 1014.5
20260505030505 53 263 0.0 5.2 0.05 0.11 0.11 89 1014.4
20260505030008 53 316 2.6 7.8 0.04 0.10 0.10 88 1014.5
20260505025006 53 279 4.3 7.0 0.03 0.09 0.09 88 1014.6
20260505024505 53 281 4.3 7.0 0.03 0.09 0.09 88 1014.7
20260505024006 53 285 2.6 7.8 0.04 0.09 0.09 89 1014.9
20260505023505 53 278 4.3 7.8 0.04 0.09 0.09 89 1015.2
20260505022505 53 302 3.5 7.8 0.04 0.08 0.08 89 1014.9
20260505022005 54 277 3.5 7.8 0.04 0.08 0.08 88 1015.0
20260505021505 54 296 2.6 7.0 0.04 0.07 0.07 88 1015.0
20260505021006 54 276 4.3 7.0 0.04 0.07 0.07 88 1015.1
20260505020504 54 259 4.3 7.0 0.03 0.06 0.06 88 1015.1
20260505020008 54 276 3.5 7.0 0.03 0.06 0.06 88 1015.0
20260505015504 54 243 2.6 6.1 0.03 0.06 0.06 88 1015.0
20260505015005 54 288 2.6 7.0 0.03 0.06 0.06 88 1015.1
20260505014505 54 263 2.6 7.8 0.04 0.06 0.06 88 1015.1
20260505013505 54 270 3.5 8.7 0.03 0.05 0.05 87 1015.3
20260505013008 54 246 5.2 9.6 0.03 0.05 0.05 87 1015.4
20260505012505 54 243 5.2 9.6 0.03 0.04 0.04 87 1015.3
20260505012005 54 268 5.2 12.2 0.03 0.04 0.04 87 1015.3
20260505010505 54 226 4.3 10.4 0.03 0.03 0.03 86 1015.5
20260505010008 54 269 133.8 569.2 2.16 0.00 0.03 86
20260505005504 55 227 5.2 9.6 0.03 0.03 0.03 86 1015.3
20260505005005 55 278 3.5 8.7 0.03 0.03 0.03 86 1015.2
20260505004504 55 229 3.5 9.6 0.02 0.02 0.02 86 1015.2
20260505004004 55 241 5.2 9.6 0.02 0.02 0.02 86 1015.3
20260505003504 56 272 3.5 9.6 0.02 0.02 0.02 86 1015.3
20260505002504 56 312 2.6 7.0 0.01 0.01 0.01 85 1015.3
20260505002005 56 274 2.6 7.8 0.01 0.01 0.01 84 1015.4
20260505001505 56 292 3.5 7.8 0.01 0.01 0.01 84 1015.3
20260505001006 56 288 2.6 9.6 0.00 0.00 0.00 83 1015.3
20260505000504 56 313 4.3 9.6 0.00 0.00 0.00 82 1015.3
20260505000006 56 333 1.7 7.8 0.00 0.00 0.00 81 1015.2
20260504235506 56 303 1.7 8.7 0.00 0.00 0.00 81 1015.2
20260504235005 56 284 2.6 8.7 0.00 0.00 0.00 81 1015.1
20260504234504 56 253 3.5 7.0 0.00 0.00 0.00 81 1015.1
20260504233504 57 284 3.5 7.8 0.00 0.00 0.00 81 1015.1
20260504233005 57 302 3.5 7.8 0.00 0.00 0.00 81 1015.2
20260504232505 57 238 2.6 10.4 0.00 0.00 0.00 81 1015.1
20260504232005 57 281 5.2 10.4 0.00 0.00 0.00 80 1015.1
20260504231504 57 273 3.5 8.7 0.00 0.00 0.00 80 1015.2
20260504231005 58 293 4.3 8.7 0.00 0.00 0.00 79 1015.2
20260504230504 58 277 4.3 8.7 0.00 0.00 0.00 78 1015.1
20260504230006 58 229 4.3 9.6 0.00 0.00 0.00 79 1015.0
20260504225505 58 242 2.6 9.6 0.00 0.00 0.00 78 1015.0
20260504225005 59 260 4.3 7.8 0.00 0.00 0.00 77 1015.0
20260504224504 59 279 3.5 7.8 0.00 0.00 0.00 76 1015.0
20260504224005 59 225 2.6 7.8 0.00 0.00 0.00 74 1015.2
20260504223006 60 259 4.3 9.6 0.00 0.00 0.00 70 1015.3
20260504222504 60 250 3.5 9.6 0.00 0.00 0.00 68 1015.3
20260504222006 61 263 4.3 8.7 0.00 0.00 0.00 66 1015.4
20260504221505 61 263 4.3 8.7 0.00 0.00 0.00 65 1015.3
20260504221005 62 290 5.2 9.6 0.00 0.00 0.00 65 1015.3
20260504220505 62 248 3.5 9.6 0.00 0.00 0.00 66 1015.2
20260504220006 62 256 3.5 7.8 0.00 0.00 0.00 65 1015.3
20260504215505 62 244 4.3 7.8 0.00 0.00 0.00 64 1015.3
20260504215005 62 286 4.3 8.7 0.00 0.00 0.00 64 1015.2
20260504214005 62 221 5.2 9.6 0.00 0.00 0.00 64 1015.1
20260504213505 62 196 3.5 9.6 0.00 0.00 0.00 63 1015.2
20260504213005 62 244 3.5 7.0 0.00 0.00 0.00 66 1015.2
20260504212505 62 273 1.7 5.2 0.00 0.00 0.00 66 1015.2
20260504212005 62 225 2.6 5.2 0.00 0.00 0.00 65 1015.2
20260504211005 62 225 3.5 7.8 0.00 0.00 0.00 63 1015.4
20260504210504 63 235 2.6 6.1 0.00 0.00 0.00 63 1015.2
20260504210006 63 233 2.6 7.0 0.00 0.00 0.00 62 1015.3
20260504205005 64 235 3.5 7.0 0.00 0.00 0.00 59 1015.3
20260504204505 64 173 0.9 7.0 0.00 0.00 0.00 60 1015.2
20260504204005 64 296 2.6 7.0 0.00 0.00 0.00 59 1015.2
20260504203005 64 253 1.7 7.0 0.00 0.00 0.00 57 1015.1
20260504202504 64 225 2.6 7.0 0.00 0.00 0.00 57 1015.2
20260504202004 64 223 2.6 6.1 0.00 0.00 0.00 57 1015.1
20260504201504 64 171 2.6 7.0 0.00 0.00 0.00 57 1015.1
20260504201005 64 306 2.6 7.0 0.00 0.00 0.00 57 1015.0
20260504200007 64 223 2.6 7.8 0.00 0.00 0.00 57 1015.2
20260504195504 64 215 3.5 8.7 0.00 0.00 0.00 57 1015.2
20260504195006 64 267 1.7 8.7 0.00 0.00 0.00 58 1015.3
20260504194505 64 219 4.3 8.7 0.00 0.00 0.00 57 1015.2
20260504194007 64 293 1.7 4.3 0.00 0.00 0.00 58 1015.4
20260504193504 64 334 1.7 7.8 0.00 0.00 0.00 59 1015.3
20260504192005 64 267 0.9 9.6 0.00 0.00 0.00 59 1015.3
20260504191505 64 318 4.3 9.6 0.00 0.00 0.00 59 1015.4
20260504191006 65 312 4.3 7.0 0.00 0.00 0.00 59 1015.4
20260504190504 65 237 2.6 7.8 0.00 0.00 0.00 58 1015.4
20260504190008 64 240 3.5 7.8 0.00 0.00 0.00 59 1015.4
20260504185504 64 257 3.5 9.6 0.00 0.00 0.00 60 1015.4
20260504185007 63 321 1.7 7.8 0.00 0.00 0.00 62 1015.5
20260504184504 63 276 2.6 7.8 0.00 0.00 0.00 63 1015.5
20260504184005 62 284 1.7 8.7 0.00 0.00 0.00 62 1015.6
20260504183504 62 292 4.3 8.7 0.00 0.00 0.00 60 1015.5
20260504183005 62 283 1.7 7.0 0.00 0.00 0.00 64 1015.5
20260504182505 63 289 2.6 7.0 0.00 0.00 0.00 64 1015.4
20260504182006 62 291 3.5 10.4 0.00 0.00 0.00 64 1015.5
20260504181005 63 269 3.5 9.6 0.00 0.00 0.00 66 1015.4
20260504180505 62 292 3.5 9.6 0.00 0.00 0.00 68 1015.2
20260504180006 62 311 4.3 9.6 0.00 0.00 0.00 69 1015.2
20260504175504 61 276 4.3 7.8 0.00 0.00 0.00 69 1015.3
20260504175005 61 332 5.2 9.6 0.00 0.00 0.00 70 1015.2
20260504174504 61 297 3.5 9.6 0.00 0.00 0.00 70 1015.3
20260504174005 61 267 4.3 9.6 0.00 0.00 0.00 70 1015.3